#timestamp,LO_Frequency,Hit,StdDev 
1579425255.2,286046984.1,P
1579425275.1,286046984.0,P
1579425276.0,286046984.0,P
1579425295.8,286046985.1,Y
1579425315.7,286047001.0,P
1579425335.5,286047000.1,N
1579425355.3,286047001.1,N
1579425375.2,286046998.6,N
1579425395.0,286047000.8,N
1579425395.9,286047000.8,N
1579425415.8,286047004.1,N
1579425435.6,286047003.9,N
1579425455.4,286047001.7,N
1579425475.3,286047001.7,N
1579425495.1,286047002.2,N
1579425515.8,286046999.9,N
1579425535.7,286047000.6,N
1579425555.5,286047001.2,N
1579425575.4,286047000.4,N
1579425595.2,286047001.2,N
1579425615.0,286046998.1,N
1579425615.9,286046998.1,N
1579425635.8,286046998.2,N
1579425655.6,286047001.2,N
1579425675.5,286046999.3,N
1579425695.3,286046997.2,N
1579425715.1,286046997.1,N
1579425735.9,286046997.5,N
1579425755.7,286046995.0,N
1579425775.5,286046995.8,N
1579425795.4,286046996.4,N
1579425815.2,286046993.9,N
1579425835.1,286046993.6,N
1579425836.0,286046993.6,N
1579425855.8,286046993.9,N
1579425875.6,286046993.4,N
1579425895.5,286046995.9,N
1579425915.3,286046993.3,N
1579425935.1,286046994.2,N
1579425955.9,286046992.0,N
1579425975.7,286046992.1,N
1579425995.6,286046990.6,N
1579426015.4,286046991.3,N
1579426035.2,286046991.2,N
1579426055.1,286046990.7,N
1579426056.0,286046990.7,N
1579426075.8,286046991.3,N
1579426095.6,286046991.4,N
1579426115.5,286046993.1,N
1579426135.3,286046993.8,N
1579426155.2,286046995.6,N
1579426175.9,286046995.7,N
1579426195.7,286046995.8,N
1579426215.6,286046993.8,N
1579426235.4,286046996.4,N
1579426255.2,286046994.2,N
1579426275.1,286046992.9,Y
1579426276.0,286046992.9,P
1579426295.8,286046999.2,N
1579426315.7,286046996.9,N
1579426335.5,286046996.7,N
1579426355.3,286046997.0,N
1579426375.2,286046999.6,N
1579426395.0,286046998.8,N
1579426395.9,286046998.8,N
1579426415.7,286047000.0,N
1579426435.6,286047000.8,N
1579426455.4,286046998.5,N
1579426475.3,286046999.2,N
1579426495.1,286046997.0,N
1579426496.0,286046997.0,N
1579426515.8,286046997.8,N
1579426535.7,286046995.0,N
1579426555.5,286046997.6,N
1579426575.3,286046996.2,N
1579426595.2,286046996.4,N
1579426615.0,286046993.6,Y
1579426615.9,286046993.6,P
1579426635.8,286046997.6,N
1579426655.6,286046997.9,N
1579426675.4,286046995.3,N
1579426695.3,286046996.2,N
1579426715.1,286046996.2,N
1579426735.9,286046997.9,N
1579426755.7,286046997.9,N
1579426775.5,286046995.5,Y
1579426795.4,286046996.6,P
1579426815.2,286046996.9,P
1579426835.0,286046997.8,P
1579426836.0,286046997.8,Y
1579426855.8,286046999.5,P
1579426875.6,286046997.0,N
1579426895.5,286046997.4,N
1579426915.3,286046997.7,N
1579426935.1,286046995.6,Y
1579426955.9,286046999.6,P
1579426975.7,286046999.2,N
1579426995.5,286046996.7,P
1579427015.4,286046996.8,N
1579427035.2,286046997.7,N
1579427055.1,286046994.9,Y
1579427056.0,286046994.9,P
1579427075.8,286046997.0,N
1579427095.6,286046997.3,N
1579427115.5,286046997.7,N
1579427135.3,286046995.3,Y
1579427155.2,286046999.3,P
1579427175.9,286046998.7,N
1579427195.7,286046998.9,N
1579427215.6,286046996.8,Y
1579427235.4,286046998.5,P
1579427255.2,286046999.6,P
1579427275.1,286046999.6,N
1579427276.0,286046999.6,N
1579427295.8,286046996.7,Y
1579427315.7,286046999.3,P
1579427335.5,286046999.0,P
1579427355.3,286046998.8,P
1579427375.2,286046996.7,Y
1579427395.0,286046997.1,P
1579427395.9,286046997.1,N
1579427415.8,286046995.0,P
1579427435.6,286046995.3,Y
1579427455.4,286046999.0,P
1579427475.3,286046997.4,N
1579427495.1,286046996.7,P
1579427515.8,286046997.7,N
1579427535.7,286046997.7,N
1579427555.5,286046995.4,Y
1579427575.4,286046999.3,P
1579427595.2,286046999.5,N
1579427615.0,286046997.2,P
1579427615.9,286046997.2,N
1579427635.8,286046999.6,N
1579427655.6,286046996.6,Y
1579427675.4,286046998.3,P
1579427695.3,286046998.2,P
1579427715.1,286046999.4,P
1579427735.9,286046999.1,N
1579427755.7,286046996.9,Y
1579427775.5,286046998.2,P
1579427795.4,286046996.8,P
1579427815.2,286046999.1,N
1579427835.0,286046999.3,N
1579427835.9,286046999.3,N
1579427855.8,286046999.5,N
1579427875.6,286046997.3,Y
1579427895.5,286046999.4,P
1579427915.3,286046999.6,N
1579427935.1,286046999.2,N
1579427955